,,Stat6,,Stat2,,Stat8,,Stat9,,Stat10,,Wind1,,Wind1,
time,status,PA1M_AVG,status,PR1M_SUM,status,RH1M_AVG,status,SR1M_AVG,status,TA1M_AVG,status,W1dAve1m,status,W1sAve1m,
2003-10-19, 00:00:00,VALID,918.474,VALID,0,VALID,99.0148,VALID,-0.0679233,VALID,20.2662,VALID,147,VALID,1.02362,
2003-10-19, 00:01:00,VALID,918.476,VALID,0,VALID,98.9995,VALID,-0.0849042,VALID,20.2788,VALID,151,VALID,1.03145,
2003-10-19, 00:02:00,VALID,918.487,VALID,0,VALID,98.9753,VALID,-0.0679233,VALID,20.2955,VALID,147,VALID,1.14512,
2003-10-19, 00:03:00,VALID,918.488,VALID,0,VALID,98.9308,VALID,-0.0679233,VALID,20.3119,VALID,147,VALID,0.808685,
2003-10-19, 00:04:00,VALID,918.482,VALID,0,VALID,98.9258,VALID,-0.0169808,VALID,20.3211,VALID,163,VALID,0.584028,
2003-10-19, 00:05:00,VALID,918.483,VALID,0,VALID,98.8927,VALID,-0.0509425,VALID,20.3372,VALID,184,VALID,0.584223,
2003-10-19, 00:06:00,VALID,918.456,VALID,0,VALID,98.8444,VALID,-0.0169808,VALID,20.3499,VALID,152,VALID,0.623958,
2003-10-19, 00:07:00,VALID,918.431,VALID,0,VALID,98.796,VALID,-0.0339617,VALID,20.3701,VALID,114,VALID,0.431362,
2003-10-19, 00:08:00,VALID,918.402,VALID,0,VALID,98.7299,VALID,-0.0509425,VALID,20.3763,VALID,159,VALID,0.446555,
2003-10-19, 00:09:00,VALID,918.379,VALID,0,VALID,98.6409,VALID,-0.0339617,VALID,20.3929,VALID,134,VALID,0.537861,
2003-10-19, 00:10:00,VALID,918.355,VALID,0,VALID,98.5633,VALID,-0.0509425,VALID,20.3924,VALID,129,VALID,0.357422,
2003-10-19, 00:11:00,VALID,918.348,VALID,0,VALID,98.4591,VALID,-0.0169808,VALID,20.3986,VALID,109,VALID,0.49809,
2003-10-19, 00:12:00,VALID,918.329,VALID,0,VALID,98.3357,VALID,-0.0169808,VALID,20.3922,VALID,114,VALID,0.493963,
2003-10-19, 00:13:00,VALID,918.321,VALID,0,VALID,98.2416,VALID,0,VALID,20.3919,VALID,128,VALID,0.684961,
2003-10-19, 00:14:00,VALID,918.305,VALID,0,VALID,98.1145,VALID,-0.0169808,VALID,20.3787,VALID,112,VALID,0.770579,
2003-10-19, 00:15:00,VALID,918.301,VALID,0,VALID,98.0178,VALID,-0.0169808,VALID,20.3792,VALID,127,VALID,0.646984,
2003-10-19, 00:16:00,VALID,918.299,VALID,0,VALID,98.0814,VALID,-0.0169808,VALID,20.379,VALID,121,VALID,0.347656,
2003-10-19, 00:17:00,VALID,918.311,VALID,0,VALID,97.9771,VALID,0,VALID,20.376,VALID,128,VALID,0.728906,
2003-10-19, 00:18:00,VALID,918.307,VALID,0,VALID,97.8614,VALID,-0.0169808,VALID,20.376,VALID,130,VALID,0.608232,
2003-10-19, 00:19:00,VALID,918.311,VALID,0,VALID,97.6898,VALID,-0.0509425,VALID,20.3765,VALID,127,VALID,0.875191,
2003-10-19, 00:20:00,VALID,918.3,VALID,0,VALID,97.4787,VALID,0,VALID,20.3633,VALID,125,VALID,1.16559,
2003-10-19, 00:21:00,VALID,918.295,VALID,0,VALID,97.3083,VALID,-0.0169808,VALID,20.3343,VALID,130,VALID,1.10156,
2003-10-19, 00:22:00,VALID,918.267,VALID,0,VALID,97.3121,VALID,-0.0169808,VALID,20.3241,VALID,126,VALID,1.05293,
2003-10-19, 00:23:00,VALID,918.253,VALID,0,VALID,97.2523,VALID,0,VALID,20.3049,VALID,141,VALID,1.03404,
2003-10-19, 00:24:00,VALID,918.226,VALID,0,VALID,97.2421,VALID,-0.0339617,VALID,20.3087,VALID,147,VALID,0.944767,
2003-10-19, 00:25:00,VALID,918.213,VALID,0,VALID,97.1163,VALID,0,VALID,20.2953,VALID,148,VALID,0.820676,
2003-10-19, 00:26:00,VALID,918.185,VALID,0,VALID,97.0984,VALID,-0.0339617,VALID,20.2754,VALID,141,VALID,0.946221,
2003-10-19, 00:27:00,VALID,918.165,VALID,0,VALID,97.0857,VALID,-0.0339617,VALID,20.253,VALID,137,VALID,0.854759,
2003-10-19, 00:28:00,VALID,918.159,VALID,0,VALID,97.1201,VALID,0,VALID,20.2438,VALID,123,VALID,0.978125,
2003-10-19, 00:29:00,VALID,918.167,VALID,0,VALID,97.1646,VALID,-0.0169808,VALID,20.2212,VALID,110,VALID,0.821948,
2003-10-19, 00:30:00,VALID,918.168,VALID,0,VALID,97.1964,VALID,0.0169808,VALID,20.1822,VALID,108,VALID,0.894159,
2003-10-19, 00:31:00,VALID,918.162,VALID,0,VALID,97.2892,VALID,-0.0169808,VALID,20.1496,VALID,116,VALID,1.14596,
2003-10-19, 00:32:00,VALID,918.171,VALID,0,VALID,97.354,VALID,0,VALID,20.0977,VALID,123,VALID,1.17418,
2003-10-19, 00:33:00,VALID,918.161,VALID,0,VALID,97.4621,VALID,-0.0169808,VALID,20.0756,VALID,133,VALID,0.708651,
2003-10-19, 00:34:00,VALID,918.162,VALID,0,VALID,97.5511,VALID,0,VALID,20.046,VALID,127,VALID,1.11682,
2003-10-19, 00:35:00,VALID,918.153,VALID,0,VALID,97.5766,VALID,0,VALID,20.0364,VALID,131,VALID,1.50055,
2003-10-19, 00:36:00,VALID,918.152,VALID,0,VALID,97.6084,VALID,0,VALID,20.0431,VALID,139,VALID,1.36537,
2003-10-19, 00:37:00,VALID,918.137,VALID,0,VALID,97.574,VALID,-0.0339617,VALID,20.0366,VALID,137,VALID,1.21984,
2003-10-19, 00:38:00,VALID,918.131,VALID,0,VALID,97.5181,VALID,0,VALID,20.0304,VALID,139,VALID,1.12367,
2003-10-19, 00:39:00,VALID,918.119,VALID,0,VALID,97.555,VALID,-0.0339617,VALID,20.0304,VALID,131,VALID,1.08121,
2003-10-19, 00:40:00,VALID,918.138,VALID,0,VALID,97.5689,VALID,0,VALID,20.0371,VALID,129,VALID,1.09976,
2003-10-19, 00:41:00,VALID,918.143,VALID,0,VALID,97.541,VALID,-0.0509425,VALID,20.0234,VALID,132,VALID,0.808984,
2003-10-19, 00:42:00,VALID,918.153,VALID,0,VALID,97.5689,VALID,0,VALID,20.0304,VALID,127,VALID,1.10992,
2003-10-19, 00:43:00,VALID,918.175,VALID,0,VALID,97.4774,VALID,-0.0169808,VALID,20.0207,VALID,94,VALID,0.627362,
2003-10-19, 00:44:00,VALID,918.176,VALID,0,VALID,97.4367,VALID,0,VALID,19.9984,VALID,99,VALID,0.37872,
2003-10-19, 00:45:00,VALID,918.182,VALID,0,VALID,97.4609,VALID,-0.0169808,VALID,19.9827,VALID,81,VALID,0.439977,
2003-10-19, 00:46:00,VALID,918.172,VALID,0,VALID,97.4977,VALID,-0.0339617,VALID,19.9757,VALID,91,VALID,0.559338,
2003-10-19, 00:47:00,VALID,918.166,VALID,0,VALID,97.5702,VALID,-0.0169808,VALID,19.9698,VALID,96,VALID,0.470553,
2003-10-19, 00:48:00,VALID,918.155,VALID,0,VALID,97.6363,VALID,0,VALID,19.9439,VALID,116,VALID,0.689648,
2003-10-19, 00:49:00,VALID,918.135,VALID,0,VALID,97.7851,VALID,-0.0509425,VALID,19.9211,VALID,137,VALID,0.702939,
2003-10-19, 00:50:00,VALID,918.119,VALID,0,VALID,97.9517,VALID,-0.0339617,VALID,19.9343,VALID,140,VALID,0.718564,
2003-10-19, 00:51:00,VALID,918.107,VALID,0,VALID,97.9339,VALID,-0.0169808,VALID,19.9017,VALID,129,VALID,0.543713,
2003-10-19, 00:52:00,VALID,918.082,VALID,0,VALID,97.9949,VALID,-0.0339617,VALID,19.9017,VALID,130,VALID,0.766006,
2003-10-19, 00:53:00,VALID,918.051,VALID,0,VALID,98.117,VALID,-0.0339617,VALID,19.892,VALID,130,VALID,0.649771,
2003-10-19, 00:54:00,VALID,918.018,VALID,0,VALID,98.1539,VALID,-0.0169808,VALID,19.8759,VALID,137,VALID,0.716264,
2003-10-19, 00:55:00,VALID,917.988,VALID,0,VALID,98.2429,VALID,-0.0169808,VALID,19.856,VALID,139,VALID,0.804514,
2003-10-19, 00:56:00,VALID,917.962,VALID,0,VALID,98.2696,VALID,-0.0169808,VALID,19.8336,VALID,137,VALID,0.593941,
2003-10-19, 00:57:00,VALID,917.964,VALID,0,VALID,98.3141,VALID,-0.0169808,VALID,19.8043,VALID,135,VALID,0.834162,
2003-10-19, 00:58:00,VALID,917.942,VALID,0,VALID,98.3243,VALID,-0.0679233,VALID,19.7725,VALID,140,VALID,0.881055,
2003-10-19, 00:59:00,VALID,917.929,VALID,0,VALID,98.3306,VALID,-0.0339617,VALID,19.7534,VALID,146,VALID,0.839026,
2003-10-19, 01:00:00,VALID,917.915,VALID,0,VALID,98.4146,VALID,-0.0169808,VALID,19.7174,VALID,144,VALID,0.767113,
2003-10-19, 01:01:00,VALID,917.906,VALID,0,VALID,98.5341,VALID,-0.0509425,VALID,19.7109,VALID,165,VALID,0.983422,
2003-10-19, 01:02:00,VALID,917.893,VALID,0,VALID,98.6193,VALID,0,VALID,19.7305,VALID,148,VALID,0.754542,
2003-10-19, 01:03:00,VALID,917.888,VALID,0,VALID,98.6409,VALID,-0.0339617,VALID,19.7211,VALID,176,VALID,0.81808,
2003-10-19, 01:04:00,VALID,917.868,VALID,0,VALID,98.6307,VALID,-0.0339617,VALID,19.7377,VALID,137,VALID,0.510742,
2003-10-19, 01:05:00,VALID,917.839,VALID,0,VALID,98.515,VALID,-0.0679233,VALID,19.7474,VALID,153,VALID,0.597656,
2003-10-19, 01:06:00,VALID,917.806,VALID,0,VALID,98.4489,VALID,-0.0339617,VALID,19.7276,VALID,136,VALID,0.833676,
2003-10-19, 01:07:00,VALID,917.799,VALID,0,VALID,98.3904,VALID,0,VALID,19.7176,VALID,124,VALID,1.16685,
2003-10-19, 01:08:00,VALID,917.788,VALID,0,VALID,98.2353,VALID,-0.0169808,VALID,19.7022,VALID,128,VALID,0.76048,
2003-10-19, 01:09:00,VALID,917.784,VALID,0,VALID,98.2315,VALID,-0.0339617,VALID,19.663,VALID,140,VALID,0.769717,
2003-10-19, 01:10:00,VALID,917.776,VALID,0,VALID,98.3256,VALID,-0.0339617,VALID,19.6528,VALID,129,VALID,0.781994,
2003-10-19, 01:11:00,VALID,917.765,VALID,0,VALID,98.3484,VALID,0,VALID,19.6463,VALID,131,VALID,0.42702,
2003-10-19, 01:12:00,VALID,917.75,VALID,0,VALID,98.323,VALID,-0.0679233,VALID,19.6406,VALID,140,VALID,0.658296,
2003-10-19, 01:13:00,VALID,917.731,VALID,0,VALID,98.3103,VALID,-0.0169808,VALID,19.6312,VALID,127,VALID,0.631641,
2003-10-19, 01:14:00,VALID,917.714,VALID,0,VALID,98.3001,VALID,-0.0169808,VALID,19.618,VALID,130,VALID,0.290483,
2003-10-19, 01:15:00,VALID,917.701,VALID,0,VALID,98.2353,VALID,-0.0679233,VALID,19.5954,VALID,130,VALID,0.00213068,
2003-10-19, 01:16:00,VALID,917.688,VALID,0,VALID,98.22,VALID,-0.0339617,VALID,19.5857,VALID,129,VALID,0.320313,
2003-10-19, 01:17:00,VALID,917.676,VALID,0,VALID,98.2467,VALID,-0.0679233,VALID,19.5827,VALID,128,VALID,0.527951,
2003-10-19, 01:18:00,VALID,917.666,VALID,0,VALID,98.1768,VALID,-0.0169808,VALID,19.5604,VALID,106,VALID,0.26543,
2003-10-19, 01:19:00,VALID,917.67,VALID,0,VALID,98.1984,VALID,-0.0169808,VALID,19.5363,VALID,106,VALID,0.103871,
2003-10-19, 01:20:00,VALID,917.65,VALID,0,VALID,98.2454,VALID,0.0339617,VALID,19.5266,VALID,106,VALID,0.0402344,
2003-10-19, 01:21:00,VALID,917.64,VALID,0,VALID,98.2747,VALID,0.0169808,VALID,19.5176,VALID,106,VALID,0.00186012,
2003-10-19, 01:22:00,VALID,917.64,VALID,0,VALID,98.1297,VALID,0.0509425,VALID,19.4779,VALID,106,VALID,0,
2003-10-19, 01:23:00,VALID,917.621,VALID,0,VALID,98.1208,VALID,0,VALID,19.456,VALID,97,VALID,0.144531,
2003-10-19, 01:24:00,VALID,917.609,VALID,0,VALID,98.1196,VALID,0,VALID,19.4528,VALID,93,VALID,0.269627,
2003-10-19, 01:25:00,VALID,917.581,VALID,0,VALID,98.0547,VALID,0.0169808,VALID,19.4141,VALID,82,VALID,0.233631,
2003-10-19, 01:26:00,VALID,917.56,VALID,0,VALID,98.0649,VALID,0,VALID,19.3944,VALID,72,VALID,0.391016,
2003-10-19, 01:27:00,VALID,917.54,VALID,0,VALID,98.1628,VALID,0.0169808,VALID,19.3785,VALID,68,VALID,0.522347,
2003-10-19, 01:28:00,VALID,917.52,VALID,0,VALID,98.5074,VALID,0.0339617,VALID,19.3977,VALID,76,VALID,0.620833,
2003-10-19, 01:29:00,VALID,917.5,VALID,0,VALID,98.6549,VALID,0,VALID,19.4277,VALID,99,VALID,0.568555,
2003-10-19, 01:30:00,VALID,917.492,VALID,0,VALID,98.6587,VALID,0,VALID,19.4235,VALID,99,VALID,0.692535,
2003-10-19, 01:31:00,VALID,917.477,VALID,0,VALID,98.688,VALID,0.0339617,VALID,19.4138,VALID,98,VALID,0.767969,
2003-10-19, 01:32:00,VALID,917.464,VALID,0,VALID,98.6905,VALID,0.0509425,VALID,19.4011,VALID,83,VALID,0.7996,
2003-10-19, 01:33:00,VALID,917.43,VALID,0,VALID,98.5366,VALID,0.0169808,VALID,19.3654,VALID,77,VALID,0.912153,
2003-10-19, 01:34:00,VALID,917.413,VALID,0,VALID,98.4527,VALID,0.0169808,VALID,19.31,VALID,69,VALID,0.912064,
2003-10-19, 01:35:00,VALID,917.399,VALID,0,VALID,98.4947,VALID,0,VALID,19.2916,VALID,67,VALID,0.962936,
2003-10-19, 01:36:00,VALID,917.375,VALID,0,VALID,98.4146,VALID,0.0169808,VALID,19.2558,VALID,75,VALID,0.993164,
2003-10-19, 01:37:00,VALID,917.357,VALID,0,VALID,98.4286,VALID,0.0169808,VALID,19.226,VALID,79,VALID,0.892857,
2003-10-19, 01:38:00,VALID,917.325,VALID,0,VALID,98.5722,VALID,0.0339617,VALID,19.233,VALID,101,VALID,1.02172,
2003-10-19, 01:39:00,VALID,917.313,VALID,0,VALID,98.8533,VALID,0.0509425,VALID,19.2526,VALID,120,VALID,1.10658,
2003-10-19, 01:40:00,VALID,917.283,VALID,0,VALID,98.9486,VALID,0.0169808,VALID,19.272,VALID,115,VALID,1.35707,
2003-10-19, 01:41:00,VALID,917.273,VALID,0,VALID,98.9588,VALID,0.0509425,VALID,19.3018,VALID,120,VALID,1.27559,
2003-10-19, 01:42:00,VALID,917.259,VALID,0,VALID,98.8749,VALID,0.0169808,VALID,19.3013,VALID,124,VALID,1.06668,
2003-10-19, 01:43:00,VALID,917.234,VALID,0,VALID,98.7859,VALID,0.0169808,VALID,19.2849,VALID,127,VALID,1.14386,
2003-10-19, 01:44:00,VALID,917.218,VALID,0,VALID,98.6791,VALID,0.0849042,VALID,19.2653,VALID,113,VALID,1.04597,
2003-10-19, 01:45:00,VALID,917.211,VALID,0,VALID,98.8202,VALID,0.0339617,VALID,19.2494,VALID,94,VALID,0.936773,
2003-10-19, 01:46:00,VALID,917.217,VALID,0,VALID,98.9601,VALID,0,VALID,19.2558,VALID,76,VALID,0.81343,
2003-10-19, 01:47:00,VALID,917.204,VALID,0,VALID,99.03,VALID,0.0339617,VALID,19.2625,VALID,80,VALID,0.842478,
2003-10-19, 01:48:00,VALID,917.191,VALID,0,VALID,99.0364,VALID,0.0339617,VALID,19.2687,VALID,81,VALID,0.833757,
2003-10-19, 01:49:00,VALID,917.191,VALID,0,VALID,99.03,VALID,0.0169808,VALID,19.2884,VALID,89,VALID,0.656795,
2003-10-19, 01:50:00,VALID,917.177,VALID,0,VALID,98.983,VALID,0.0339617,VALID,19.2913,VALID,107,VALID,0.884084,
2003-10-19, 01:51:00,VALID,917.157,VALID,0,VALID,98.8978,VALID,0.0339617,VALID,19.2916,VALID,124,VALID,0.84561,
2003-10-19, 01:52:00,VALID,917.133,VALID,0,VALID,98.7693,VALID,0.0169808,VALID,19.2854,VALID,140,VALID,1.05796,
2003-10-19, 01:53:00,VALID,917.105,VALID,0,VALID,98.7032,VALID,0.0169808,VALID,19.2593,VALID,143,VALID,1.00521,
2003-10-19, 01:54:00,VALID,917.104,VALID,0,VALID,98.6117,VALID,0.0169808,VALID,19.2531,VALID,124,VALID,0.883929,
2003-10-19, 01:55:00,VALID,917.092,VALID,0,VALID,98.3141,VALID,0.0339617,VALID,19.2014,VALID,91,VALID,0.682091,
2003-10-19, 01:56:00,VALID,917.077,VALID,0,VALID,98.3319,VALID,0.0169808,VALID,19.1497,VALID,111,VALID,1.00747,
2003-10-19, 01:57:00,VALID,917.073,VALID,0,VALID,98.3802,VALID,0.0679233,VALID,19.1304,VALID,105,VALID,0.961523,
2003-10-19, 01:58:00,VALID,917.045,VALID,0,VALID,98.5544,VALID,0,VALID,19.1041,VALID,100,VALID,0.991443,
2003-10-19, 01:59:00,VALID,917.037,VALID,0,VALID,98.6307,VALID,0.0509425,VALID,19.0946,VALID,97,VALID,1.07794,
2003-10-19, 02:00:00,VALID,917.025,VALID,0,VALID,98.7261,VALID,0.0679233,VALID,19.0785,VALID,94,VALID,1.07724,
2003-10-19, 02:01:00,VALID,917.021,VALID,0,VALID,98.7528,VALID,0.0339617,VALID,19.0621,VALID,92,VALID,0.971608,
2003-10-19, 02:02:00,VALID,917.011,VALID,0,VALID,98.7948,VALID,0.0169808,VALID,19.0757,VALID,112,VALID,0.894922,
2003-10-19, 02:03:00,VALID,917.004,VALID,0,VALID,98.81,VALID,0,VALID,19.0663,VALID,117,VALID,0.767578,
2003-10-19, 02:04:00,VALID,917.002,VALID,0,VALID,98.8304,VALID,-0.0169808,VALID,19.0598,VALID,127,VALID,1.05505,
2003-10-19, 02:05:00,VALID,917.002,VALID,0,VALID,98.8609,VALID,-0.0339617,VALID,19.0633,VALID,131,VALID,0.992383,
2003-10-19, 02:06:00,VALID,916.995,VALID,0,VALID,98.8558,VALID,0,VALID,19.0534,VALID,127,VALID,0.542111,
2003-10-19, 02:07:00,VALID,916.993,VALID,0,VALID,98.8431,VALID,0,VALID,19.0573,VALID,125,VALID,0.97877,
2003-10-19, 02:08:00,VALID,916.988,VALID,0,VALID,98.9003,VALID,-0.0169808,VALID,19.0501,VALID,119,VALID,0.785547,
2003-10-19, 02:09:00,VALID,916.981,VALID,0,VALID,98.8227,VALID,0,VALID,19.0273,VALID,114,VALID,0.903232,
2003-10-19, 02:10:00,VALID,916.982,VALID,0,VALID,98.8418,VALID,0.0169808,VALID,19.0178,VALID,105,VALID,0.871366,
2003-10-19, 02:11:00,VALID,916.969,VALID,0,VALID,98.7261,VALID,0,VALID,18.9853,VALID,106,VALID,0.743075,
2003-10-19, 02:12:00,VALID,916.959,VALID,0,VALID,98.8291,VALID,0,VALID,18.9662,VALID,112,VALID,0.615184,
2003-10-19, 02:13:00,VALID,916.963,VALID,0,VALID,98.8673,VALID,-0.0169808,VALID,18.9666,VALID,115,VALID,0.693452,
2003-10-19, 02:14:00,VALID,916.946,VALID,0,VALID,98.8304,VALID,-0.0339617,VALID,18.9369,VALID,116,VALID,0.78125,
2003-10-19, 02:15:00,VALID,916.933,VALID,0,VALID,98.852,VALID,0,VALID,18.9244,VALID,107,VALID,0.880145,
2003-10-19, 02:16:00,VALID,916.917,VALID,0,VALID,98.824,VALID,-0.0509425,VALID,18.8981,VALID,125,VALID,0.781641,
2003-10-19, 02:17:00,VALID,916.897,VALID,0,VALID,98.9054,VALID,-0.0169808,VALID,18.9048,VALID,125,VALID,1.21032,
2003-10-19, 02:18:00,VALID,916.875,VALID,0,VALID,98.9334,VALID,0,VALID,18.9177,VALID,128,VALID,1.08303,
2003-10-19, 02:19:00,VALID,916.844,VALID,0,VALID,98.8571,VALID,-0.0339617,VALID,18.918,VALID,113,VALID,1.0012,
2003-10-19, 02:20:00,VALID,916.835,VALID,0,VALID,98.7248,VALID,0,VALID,18.8914,VALID,121,VALID,0.87429,
2003-10-19, 02:21:00,VALID,916.811,VALID,0,VALID,98.6854,VALID,0,VALID,18.8896,VALID,118,VALID,0.980646,
2003-10-19, 02:22:00,VALID,916.807,VALID,0,VALID,98.7948,VALID,0,VALID,18.8599,VALID,114,VALID,0.809338,
2003-10-19, 02:23:00,VALID,916.792,VALID,0,VALID,98.9448,VALID,-0.0169808,VALID,18.8628,VALID,126,VALID,0.742898,
2003-10-19, 02:24:00,VALID,916.787,VALID,0,VALID,98.8456,VALID,-0.0169808,VALID,18.8601,VALID,121,VALID,0.625533,
2003-10-19, 02:25:00,VALID,916.772,VALID,0,VALID,98.9525,VALID,0,VALID,18.8631,VALID,114,VALID,0.760298,
2003-10-19, 02:26:00,VALID,916.783,VALID,0,VALID,98.9156,VALID,-0.0169808,VALID,18.8504,VALID,97,VALID,0.741642,
2003-10-19, 02:27:01,VALID,916.776,VALID,0,VALID,98.7884,VALID,0,VALID,18.8013,VALID,68,VALID,0.640997,
2003-10-19, 02:28:00,VALID,916.778,VALID,0,VALID,98.7248,VALID,-0.0509425,VALID,18.7858,VALID,54,VALID,0.734961,
2003-10-19, 02:29:00,VALID,916.773,VALID,0,VALID,98.426,VALID,-0.0169808,VALID,18.7342,VALID,46,VALID,0.839744,
2003-10-19, 02:30:00,VALID,916.767,VALID,0,VALID,98.5176,VALID,0,VALID,18.7086,VALID,47,VALID,0.770894,
2003-10-19, 02:31:01,VALID,916.758,VALID,0,VALID,98.7541,VALID,-0.0169808,VALID,18.7086,VALID,47,VALID,0.640625,
2003-10-19, 02:32:00,VALID,916.748,VALID,0,VALID,98.8812,VALID,-0.0339617,VALID,18.7215,VALID,48,VALID,0.726563,
2003-10-19, 02:33:00,VALID,916.738,VALID,0,VALID,99.0847,VALID,0,VALID,18.7436,VALID,54,VALID,0.785069,
2003-10-19, 02:34:00,VALID,916.741,VALID,0,VALID,99.1877,VALID,0.0849042,VALID,18.7787,VALID,66,VALID,0.555537,
2003-10-19, 02:35:00,VALID,916.73,VALID,0,VALID,99.2475,VALID,0.118866,VALID,18.7939,VALID,82,VALID,0.576349,
2003-10-19, 02:36:00,VALID,916.731,VALID,0,VALID,99.1775,VALID,0.0679233,VALID,18.8008,VALID,83,VALID,0.518555,
2003-10-19, 02:37:01,VALID,916.737,VALID,0,VALID,99.0364,VALID,0.101885,VALID,18.7842,VALID,79,VALID,0.422057,
2003-10-19, 02:38:00,VALID,916.732,VALID,0,VALID,98.8698,VALID,0.0849042,VALID,18.769,VALID,76,VALID,0.418341,
2003-10-19, 02:39:00,VALID,916.722,VALID,0,VALID,98.8355,VALID,0.101885,VALID,18.7422,VALID,76,VALID,0.432422,
2003-10-19, 02:40:00,VALID,916.71,VALID,0,VALID,98.8634,VALID,0.101885,VALID,18.7327,VALID,76,VALID,0.346912,
2003-10-19, 02:41:01,VALID,916.701,VALID,0,VALID,98.7375,VALID,0.101885,VALID,18.7228,VALID,76,VALID,0.364955,
2003-10-19, 02:42:00,VALID,916.689,VALID,0,VALID,98.5227,VALID,0.101885,VALID,18.6746,VALID,76,VALID,0.245924,
2003-10-19, 02:43:00,VALID,916.687,VALID,0,VALID,98.501,VALID,0.101885,VALID,18.6488,VALID,76,VALID,0.217969,
2003-10-19, 02:44:00,VALID,916.664,VALID,0,VALID,98.5913,VALID,0.0849042,VALID,18.6193,VALID,76,VALID,0.127003,
2003-10-19, 02:45:01,VALID,916.65,VALID,0,VALID,98.5277,VALID,0.0849042,VALID,18.6071,VALID,76,VALID,0.0499637,
2003-10-19, 02:46:00,VALID,916.627,VALID,0,VALID,98.5926,VALID,0.101885,VALID,18.5709,VALID,78,VALID,0.415968,
2003-10-19, 02:47:00,VALID,916.604,VALID,0,VALID,98.5494,VALID,0.118866,VALID,18.5559,VALID,113,VALID,0.577934,
2003-10-19, 02:48:00,VALID,916.6,VALID,0,VALID,98.7185,VALID,0.0849042,VALID,18.5132,VALID,125,VALID,0.391352,
2003-10-19, 02:49:00,VALID,916.612,VALID,0,VALID,98.7401,VALID,0.0169808,VALID,18.4982,VALID,130,VALID,0.369141,
2003-10-19, 02:50:01,VALID,916.62,VALID,0,VALID,98.7541,VALID,0.0169808,VALID,18.4763,VALID,134,VALID,0.531064,
2003-10-19, 02:51:01,VALID,916.628,VALID,0,VALID,98.7096,VALID,-0.0339617,VALID,18.4507,VALID,134,VALID,0.370617,
2003-10-19, 02:52:01,VALID,916.636,VALID,0,VALID,98.6689,VALID,0,VALID,18.4083,VALID,134,VALID,0.268056,
2003-10-19, 02:53:00,VALID,916.63,VALID,0,VALID,98.4349,VALID,-0.0679233,VALID,18.338,VALID,134,VALID,0.186773,
2003-10-19, 02:54:00,VALID,916.607,VALID,0,VALID,98.2213,VALID,-0.0339617,VALID,18.26,VALID,134,VALID,0.0874256,
2003-10-19, 02:55:00,VALID,916.596,VALID,0,VALID,98.3891,VALID,0,VALID,18.2084,VALID,134,VALID,0.0332532,
2003-10-19, 02:56:01,VALID,916.59,VALID,0,VALID,98.6371,VALID,0,VALID,18.1922,VALID,134,VALID,0,
2003-10-19, 02:57:00,VALID,916.594,VALID,0,VALID,98.5811,VALID,-0.0169808,VALID,18.1765,VALID,134,VALID,0,
2003-10-19, 02:58:01,VALID,916.562,VALID,0,VALID,98.2378,VALID,-0.0169808,VALID,18.0795,VALID,110,VALID,0.119186,
2003-10-19, 02:59:00,VALID,916.566,VALID,0,VALID,98.3866,VALID,-0.0169808,VALID,18.0147,VALID,74,VALID,0.487909,
2003-10-19, 03:00:00,VALID,916.56,VALID,0,VALID,99.1432,VALID,-0.0169808,VALID,18.0629,VALID,74,VALID,0.512355,
2003-10-19, 03:01:00,VALID,916.558,VALID,0,VALID,99.7141,VALID,0,VALID,18.15,VALID,75,VALID,0.540153,
2003-10-19, 03:02:00,VALID,916.564,VALID,0,VALID,99.9379,VALID,0,VALID,18.2566,VALID,77,VALID,0.588542,
2003-10-19, 03:03:00,VALID,916.574,VALID,0,VALID,99.6556,VALID,0,VALID,18.2568,VALID,71,VALID,0.66582,
2003-10-19, 03:04:00,VALID,916.576,VALID,0,VALID,98.9232,VALID,-0.0339617,VALID,18.1053,VALID,59,VALID,0.592708,
2003-10-19, 03:05:00,VALID,916.567,VALID,0,VALID,98.309,VALID,-0.0339617,VALID,17.9632,VALID,57,VALID,0.596475,
2003-10-19, 03:06:00,VALID,916.569,VALID,0,VALID,98.5239,VALID,-0.0169808,VALID,17.9243,VALID,57,VALID,0.536337,
2003-10-19, 03:07:00,VALID,916.563,VALID,0,VALID,99.1763,VALID,-0.0339617,VALID,17.9662,VALID,60,VALID,0.518643,
2003-10-19, 03:08:01,VALID,916.557,VALID,0,VALID,99.8667,VALID,-0.0169808,VALID,18.0891,VALID,79,VALID,0.604539,
2003-10-19, 03:09:01,VALID,916.547,VALID,0,VALID,99.5717,VALID,0,VALID,18.1378,VALID,103,VALID,0.478885,
2003-10-19, 03:10:00,VALID,916.538,VALID,0,VALID,99.0567,VALID,0,VALID,18.0502,VALID,114,VALID,0.59446,
2003-10-19, 03:11:00,VALID,916.533,VALID,0,VALID,98.9766,VALID,0,VALID,17.9734,VALID,127,VALID,0.771577,
2003-10-19, 03:12:01,VALID,916.527,VALID,0,VALID,98.852,VALID,0.0169808,VALID,17.918,VALID,127,VALID,0.926847,
2003-10-19, 03:13:00,VALID,916.525,VALID,0,VALID,99.0466,VALID,0.0169808,VALID,17.8724,VALID,125,VALID,0.981707,
2003-10-19, 03:14:00,VALID,916.528,VALID,0,VALID,99.6976,VALID,0,VALID,17.9215,VALID,109,VALID,0.922965,
2003-10-19, 03:15:00,VALID,916.533,VALID,0,VALID,99.999,VALID,-0.0169808,VALID,18.0313,VALID,109,VALID,0.876065,
2003-10-19, 03:16:01,VALID,916.54,VALID,0,VALID,100,VALID,0,VALID,18.0889,VALID,112,VALID,0.934593,
2003-10-19, 03:17:00,VALID,916.54,VALID,0,VALID,99.9352,VALID,-0.0169808,VALID,18.1055,VALID,120,VALID,1.00999,
2003-10-19, 03:18:00,VALID,916.543,VALID,0,VALID,99.7014,VALID,0,VALID,18.076,VALID,124,VALID,1.02287,
2003-10-19, 03:19:01,VALID,916.547,VALID,0,VALID,99.6073,VALID,0,VALID,18.0407,VALID,131,VALID,1.08705,
2003-10-19, 03:20:01,VALID,916.56,VALID,0,VALID,99.7726,VALID,-0.0169808,VALID,18.0407,VALID,127,VALID,1.30934,
2003-10-19, 03:21:00,VALID,916.563,VALID,0,VALID,99.7192,VALID,0,VALID,18.0278,VALID,118,VALID,1.42129,
2003-10-19, 03:22:00,VALID,916.575,VALID,0,VALID,99.9379,VALID,0,VALID,18.0377,VALID,117,VALID,1.55269,
2003-10-19, 03:23:00,VALID,916.603,VALID,0,VALID,99.8375,VALID,-0.0169808,VALID,18.0252,VALID,116,VALID,1.2044,
2003-10-19, 03:24:00,VALID,916.606,VALID,0,VALID,99.8108,VALID,0,VALID,17.9697,VALID,107,VALID,1.07984,
2003-10-19, 03:25:00,VALID,916.622,VALID,0,VALID,99.8934,VALID,0,VALID,17.9383,VALID,117,VALID,1.17912,
2003-10-19, 03:26:00,VALID,916.644,VALID,0,VALID,99.999,VALID,-0.0339617,VALID,17.9148,VALID,127,VALID,1.21373,
2003-10-19, 03:27:01,VALID,916.658,VALID,0,VALID,100,VALID,-0.0169808,VALID,17.9312,VALID,119,VALID,1.2561,
2003-10-19, 03:28:01,VALID,916.667,VALID,0,VALID,100,VALID,0,VALID,17.9575,VALID,112,VALID,1.24168,
2003-10-19, 03:29:00,VALID,916.679,VALID,0,VALID,100,VALID,-0.0509425,VALID,17.9478,VALID,111,VALID,1.37119,
2003-10-19, 03:30:01,VALID,916.675,VALID,0,VALID,100,VALID,-0.0169808,VALID,17.954,VALID,104,VALID,1.23809,
2003-10-19, 03:31:00,VALID,916.669,VALID,0,VALID,100,VALID,-0.0169808,VALID,17.9508,VALID,90,VALID,1.10781,
2003-10-19, 03:32:00,VALID,916.661,VALID,0,VALID,100,VALID,-0.0339617,VALID,17.9406,VALID,94,VALID,1.15605,
2003-10-19, 03:33:00,VALID,916.645,VALID,0,VALID,100,VALID,0.0169808,VALID,17.957,VALID,90,VALID,1.03292,
2003-10-19, 03:34:00,VALID,916.638,VALID,0,VALID,100,VALID,0,VALID,17.9535,VALID,85,VALID,1.05506,
2003-10-19, 03:35:00,VALID,916.617,VALID,0,VALID,100,VALID,0,VALID,17.9794,VALID,95,VALID,1.13477,